| time (UTC) | temp F | wind direction | speed knots | gust knots | rain 1hr in | rain 24hr in | rain mn in | humidity % | barometer mb |
| 20260510150033 | 60 | 134 | 0.9 | 2.6 | 0.00 | 0.44 | 0.00 | 77 | 1011.4 |
| 20260510145508 | 60 | 355 | 0.9 | 2.6 | 0.00 | 0.44 | 0.00 | 76 | 1011.2 |
| 20260510145009 | 60 | 2 | 0.9 | 3.5 | 0.00 | 0.44 | 0.00 | 79 | 1011.3 |
| 20260510144524 | 59 | 248 | 0.9 | 3.5 | 0.00 | 0.45 | 0.00 | 79 | 1011.2 |
| 20260510144007 | 59 | 104 | 0.9 | 3.5 | 0.00 | 0.46 | 0.00 | 80 | 1011.3 |
| 20260510143507 | 58 | 122 | 0.9 | 2.6 | 0.00 | 0.46 | 0.00 | 80 | 1011.4 |
| 20260510143025 | 58 | 316 | 0.9 | 2.6 | 0.00 | 0.47 | 0.00 | 81 | 1011.5 |
| 20260510142511 | 57 | 20 | 0.0 | 2.6 | 0.00 | 0.47 | 0.00 | 82 | 1011.5 |
| 20260510142006 | 57 | 53 | 0.9 | 2.6 | 0.00 | 0.48 | 0.00 | 82 | 1011.4 |
| 20260510141524 | 57 | 298 | 0.9 | 3.5 | 0.00 | 0.48 | 0.00 | 82 | 1011.4 |
| 20260510141004 | 57 | 1 | 1.7 | 3.5 | 0.00 | 0.48 | 0.00 | 82 | 1011.4 |
| 20260510140503 | 57 | 16 | 1.7 | 3.5 | 0.00 | 0.48 | 0.00 | 82 | 1011.3 |
| 20260510140019 | 57 | 359 | 1.7 | 5.2 | 0.00 | 0.48 | 0.00 | 82 | 1011.4 |
| 20260510135508 | 57 | 53 | 0.9 | 5.2 | 0.00 | 0.48 | 0.00 | 83 | 1011.3 |
| 20260510135008 | 57 | 18 | 1.7 | 4.3 | 0.00 | 0.48 | 0.00 | 82 | 1011.4 |
| 20260510134525 | 57 | 58 | 1.7 | 4.3 | 0.00 | 0.48 | 0.00 | 83 | 1011.3 |
| 20260510134009 | 57 | 23 | 0.9 | 3.5 | 0.00 | 0.48 | 0.00 | 87 | 1011.3 |
| 20260510133507 | 56 | 49 | 0.9 | 3.5 | 0.00 | 0.48 | 0.00 | 87 | 1011.4 |
| 20260510133024 | 55 | 28 | 0.9 | 2.6 | 0.00 | 0.48 | 0.00 | 87 | 1011.5 |
| 20260510132510 | 55 | 22 | 0.0 | 2.6 | 0.00 | 0.48 | 0.00 | 88 | 1011.5 |
| 20260510132012 | 54 | 47 | 0.9 | 1.7 | 0.00 | 0.48 | 0.00 | 88 | 1011.6 |
| 20260510131526 | 54 | 47 | 0.0 | 1.7 | 0.00 | 0.48 | 0.00 | 89 | 1011.6 |
| 20260510131007 | 54 | 63 | 0.9 | 2.6 | 0.00 | 0.48 | 0.00 | 89 | 1011.7 |
| 20260510130507 | 54 | 79 | 0.9 | 1.7 | 0.00 | 0.48 | 0.00 | 89 | 1011.7 |
| 20260510130018 | 53 | 215 | 0.0 | 1.7 | 0.00 | 0.48 | 0.00 | 89 | 1011.6 |
| 20260510125505 | 53 | 261 | 0.9 | 1.7 | 0.00 | 0.48 | 0.00 | 90 | 1011.5 |
| 20260510125009 | 53 | 250 | 0.0 | 1.7 | 0.00 | 0.48 | 0.00 | 91 | 1011.5 |
| 20260510124522 | 53 | 67 | 0.0 | 1.7 | 0.00 | 0.48 | 0.00 | 92 | 1011.3 |
| 20260510124007 | 52 | 350 | 0.0 | 1.7 | 0.00 | 0.48 | 0.00 | 92 | 1011.4 |
| 20260510123512 | 52 | 146 | 0.0 | 1.7 | 0.00 | 0.48 | 0.00 | 92 | 1011.5 |
| 20260510123026 | 52 | 62 | 0.0 | 1.7 | 0.00 | 0.48 | 0.00 | 93 | 1011.6 |
| 20260510122509 | 52 | 119 | 0.0 | 1.7 | 0.00 | 0.48 | 0.00 | 93 | 1011.7 |
| 20260510122007 | 51 | 257 | 0.0 | 1.7 | 0.00 | 0.48 | 0.00 | 93 | 1011.6 |
| 20260510121525 | 51 | 40 | 0.0 | 1.7 | 0.00 | 0.48 | 0.00 | 94 | 1011.6 |
| 20260510121008 | 51 | 18 | 0.0 | 1.7 | 0.00 | 0.48 | 0.00 | 94 | 1011.7 |
| 20260510120506 | 51 | 83 | 0.0 | 1.7 | 0.00 | 0.48 | 0.00 | 95 | 1011.6 |
| 20260510120019 | 51 | 205 | 0.0 | 1.7 | 0.00 | 0.48 | 0.00 | 95 | 1011.6 |
| 20260510115504 | 51 | 196 | 0.0 | 1.7 | 0.00 | 0.48 | 0.00 | 95 | 1011.6 |
| 20260510115003 | 51 | 160 | 0.0 | 1.7 | 0.00 | 0.48 | 0.00 | 95 | 1011.6 |
| 20260510114518 | 50 | 82 | 0.0 | 0.9 | 0.00 | 0.48 | 0.00 | 95 | 1011.6 |
| 20260510114003 | 50 | 82 | 0.0 | 1.7 | 0.00 | 0.48 | 0.00 | 95 | 1011.6 |
| 20260510113503 | 50 | 254 | 0.0 | 1.7 | 0.00 | 0.48 | 0.00 | 95 | 1011.6 |
| 20260510113004 | 50 | 263 | 0.0 | 1.7 | 0.00 | 0.48 | 0.00 | 95 | 1011.4 |
| 20260510112503 | 49 | 229 | 0.0 | 1.7 | 0.00 | 0.48 | 0.00 | 95 | 1011.4 |
| 20260510111520 | 49 | 71 | 0.0 | 1.7 | 0.00 | 0.48 | 0.00 | 95 | 1011.2 |
| 20260510110019 | 48 | 244 | 0.0 | 1.7 | 0.00 | 0.48 | 0.00 | 95 | 1011.4 |
| 20260510104530 | 48 | 244 | 0.0 | 1.7 | 0.00 | 0.48 | 0.00 | 95 | 1011.2 |
| 20260510104005 | 48 | 231 | 0.0 | 1.7 | 0.00 | 0.48 | 0.00 | 95 | 1011.0 |
| 20260510103504 | 48 | 226 | 0.0 | 1.7 | 0.00 | 0.48 | 0.00 | 95 | 1010.9 |
| 20260510103019 | 48 | 252 | 0.9 | 1.7 | 0.00 | 0.48 | 0.00 | 95 | 1010.9 |
| 20260510102504 | 48 | 283 | 0.0 | 1.7 | 0.00 | 0.48 | 0.00 | 95 | 1010.7 |
| 20260510102003 | 48 | 287 | 0.0 | 1.7 | 0.00 | 0.48 | 0.00 | 95 | 1010.7 |
| 20260510101507 | 48 | 285 | 0.0 | 1.7 | 0.00 | 0.48 | 0.00 | 95 | 1010.6 |
| 20260510101003 | 48 | 285 | 0.0 | 1.7 | 0.00 | 0.48 | 0.00 | 95 | 1010.4 |
| 20260510100504 | 48 | 285 | 0.0 | 1.7 | 0.00 | 0.48 | 0.00 | 95 | 1010.4 |
| 20260510100013 | 48 | 285 | 0.0 | 1.7 | 0.00 | 0.48 | 0.00 | 95 | 1010.1 |
| 20260510095505 | 48 | 281 | 0.0 | 1.7 | 0.00 | 0.48 | 0.00 | 95 | 1009.8 |
| 20260510095004 | 47 | 244 | 0.9 | 0.9 | 0.00 | 0.48 | 0.00 | 95 | 1009.6 |
| 20260510094531 | 47 | 283 | 0.9 | 1.7 | 0.00 | 0.48 | 0.00 | 95 | 1009.9 |
| 20260510094004 | 47 | 236 | 0.9 | 1.7 | 0.00 | 0.48 | 0.00 | 95 | 1009.9 |
| 20260510093507 | 47 | 162 | 0.0 | 1.7 | 0.00 | 0.48 | 0.00 | 95 | 1009.8 |
| 20260510093012 | 47 | 149 | 0.0 | 1.7 | 0.00 | 0.48 | 0.00 | 95 | 1009.9 |
| 20260510092504 | 47 | 167 | 0.0 | 1.7 | 0.00 | 0.48 | 0.00 | 95 | 1009.9 |
| 20260510092005 | 47 | 236 | 0.0 | 1.7 | 0.00 | 0.48 | 0.00 | 95 | 1010.0 |
| 20260510091003 | 47 | 216 | 0.0 | 1.7 | 0.00 | 0.48 | 0.00 | 95 | 1009.7 |
| 20260510090504 | 47 | 216 | 0.0 | 1.7 | 0.00 | 0.48 | 0.00 | 95 | 1009.7 |
| 20260510090010 | 47 | 207 | 0.0 | 1.7 | 0.00 | 0.48 | 0.00 | 95 | 1009.7 |
| 20260510085503 | 47 | 251 | 0.9 | 1.7 | 0.00 | 0.48 | 0.00 | 95 | 1009.8 |
| 20260510085008 | 47 | 260 | 0.0 | 1.7 | 0.00 | 0.48 | 0.00 | 95 | 1009.6 |
| 20260510084516 | 47 | 260 | 0.0 | 1.7 | 0.00 | 0.48 | 0.00 | 94 | 1009.8 |
| 20260510084006 | 47 | 260 | 0.0 | 0.0 | 0.00 | 0.48 | 0.00 | 95 | 1010.0 |
| 20260510083506 | 47 | 260 | 0.0 | 0.9 | 0.00 | 0.48 | 0.00 | 95 | 1010.1 |
| 20260510083016 | 47 | 260 | 0.0 | 1.7 | 0.00 | 0.48 | 0.00 | 95 | 1010.3 |
| 20260510082507 | 47 | 260 | 0.0 | 1.7 | 0.00 | 0.48 | 0.00 | 95 | 1010.4 |
| 20260510082007 | 47 | 260 | 0.0 | 1.7 | 0.00 | 0.48 | 0.00 | 95 | 1010.5 |
| 20260510081531 | 47 | 260 | 0.0 | 0.9 | 0.00 | 0.48 | 0.00 | 95 | 1010.5 |
| 20260510081005 | 47 | 260 | 0.0 | 1.7 | 0.00 | 0.48 | 0.00 | 94 | 1010.2 |
| 20260510080506 | 47 | 260 | 0.0 | 1.7 | 0.00 | 0.48 | 0.00 | 94 | 1010.4 |
| 20260510080008 | 47 | 260 | 0.0 | 1.7 | 0.00 | 0.48 | 0.00 | 95 | 1010.3 |
| 20260510075503 | 47 | 260 | 0.0 | 1.7 | 0.00 | 0.48 | 0.00 | 95 | 1010.4 |
| 20260510075006 | 47 | 262 | 0.0 | 0.9 | 0.00 | 0.48 | 0.00 | 94 | 1010.6 |
| 20260510074513 | 47 | 262 | 0.0 | 0.0 | 0.00 | 0.48 | 0.00 | 94 | 1010.6 |
| 20260510074007 | 47 | 262 | 0.0 | 1.7 | 0.00 | 0.48 | 0.00 | 94 | 1010.3 |
| 20260510073507 | 47 | 262 | 0.0 | 1.7 | 0.00 | 0.48 | 0.00 | 94 | 1010.4 |
| 20260510073017 | 47 | 262 | 0.0 | 1.7 | 0.00 | 0.48 | 0.00 | 94 | 1010.5 |
| 20260510072504 | 47 | 262 | 0.0 | 1.7 | 0.00 | 0.48 | 0.00 | 94 | 1010.4 |
| 20260510072007 | 47 | 262 | 0.0 | 1.7 | 0.00 | 0.48 | 0.00 | 94 | 1010.3 |
| 20260510071517 | 47 | 262 | 0.0 | 1.7 | 0.00 | 0.48 | 0.00 | 94 | 1010.2 |
| 20260510071007 | 47 | 262 | 0.0 | 0.9 | 0.00 | 0.48 | 0.00 | 94 | 1010.2 |
| 20260510070508 | 47 | 262 | 0.9 | 0.9 | 0.00 | 0.48 | 0.00 | 94 | 1010.4 |
| 20260510070021 | 48 | 28 | 0.0 | 0.9 | 0.00 | 0.48 | 0.00 | 94 | 1010.1 |
| 20260510065506 | 48 | 28 | 0.0 | 0.0 | 0.00 | 0.48 | 0.00 | 94 | 1010.2 |
| 20260510065009 | 48 | 28 | 0.0 | 0.0 | 0.00 | 0.48 | 0.00 | 94 | 1010.1 |
| 20260510064005 | 48 | 28 | 0.0 | 1.7 | 0.00 | 0.48 | 0.00 | 94 | 1010.2 |
| 20260510063503 | 48 | 19 | 0.0 | 0.9 | 0.00 | 0.48 | 0.00 | 94 | 1010.5 |
| 20260510063017 | 48 | 359 | 0.0 | 1.7 | 0.00 | 0.48 | 0.00 | 94 | 1010.6 |
| 20260510062508 | 49 | 359 | 0.0 | 1.7 | 0.00 | 0.48 | 0.00 | 94 | 1010.6 |
| 20260510062011 | 49 | 359 | 0.0 | 1.7 | 0.00 | 0.48 | 0.00 | 94 | 1010.2 |
| 20260510061525 | 49 | 359 | 0.0 | 0.9 | 0.00 | 0.48 | 0.00 | 94 | 1010.2 |
| 20260510061007 | 49 | 359 | 0.0 | 1.7 | 0.00 | 0.48 | 0.00 | 94 | 1010.3 |
| 20260510060513 | 49 | 359 | 0.0 | 1.7 | 0.00 | 0.48 | 0.00 | 94 | 1010.3 |
| 20260510060018 | 49 | 359 | 0.0 | 1.7 | 0.00 | 0.48 | 0.00 | 94 | 1010.4 |
| 20260510055506 | 49 | 359 | 0.0 | 1.7 | 0.00 | 0.48 | 0.00 | 94 | 1010.3 |
| 20260510055010 | 49 | 359 | 0.0 | 1.7 | 0.00 | 0.48 | 0.00 | 94 | 1010.3 |
| 20260510054520 | 49 | 1 | 0.0 | 1.7 | 0.00 | 0.48 | 0.00 | 94 | 1010.2 |
| 20260510054008 | 49 | 338 | 0.9 | 4.3 | 0.00 | 0.48 | 0.00 | 94 | 1010.0 |
| 20260510053502 | 49 | 270 | 0.9 | 4.3 | 0.00 | 0.48 | 0.00 | 94 | 1009.9 |
| 20260510053012 | 49 | 259 | 0.9 | 2.6 | 0.00 | 0.48 | 0.00 | 94 | 1010.0 |
| 20260510052506 | 49 | 284 | 0.9 | 2.6 | 0.00 | 0.48 | 0.00 | 94 | 1010.0 |
| 20260510051001 | 49 | 326 | 0.0 | 1.7 | 0.00 | 0.48 | 0.00 | 94 | 1010.4 |
| 20260510045506 | 49 | 242 | 0.0 | 1.7 | 0.00 | 0.48 | 0.00 | 94 | 1010.8 |
| 20260510045003 | 49 | 236 | 0.0 | 1.7 | 0.00 | 0.48 | 0.00 | 94 | 1010.9 |
| 20260510044509 | 49 | 311 | 0.0 | 1.7 | 0.00 | 0.48 | 0.00 | 94 | 1010.8 |
| 20260510044004 | 49 | 237 | 0.0 | 1.7 | 0.00 | 0.48 | 0.00 | 94 | 1010.9 |
| 20260510043504 | 49 | 237 | 0.0 | 0.9 | 0.00 | 0.48 | 0.00 | 94 | 1011.0 |
| 20260510043019 | 49 | 237 | 0.0 | 1.7 | 0.00 | 0.48 | 0.00 | 94 | 1011.0 |
| 20260510042506 | 49 | 236 | 0.0 | 1.7 | 0.00 | 0.48 | 0.00 | 94 | 1011.0 |
| 20260510042003 | 49 | 247 | 0.0 | 1.7 | 0.00 | 0.48 | 0.00 | 94 | 1010.9 |
| 20260510041514 | 49 | 255 | 0.0 | 1.7 | 0.00 | 0.48 | 0.00 | 94 | 1010.8 |
| 20260510041006 | 49 | 255 | 0.0 | 1.7 | 0.00 | 0.48 | 0.00 | 94 | 1010.8 |
| 20260510040501 | 49 | 254 | 0.0 | 1.7 | 0.00 | 0.48 | 0.00 | 94 | 1010.8 |
| 20260510034007 | 49 | 272 | 0.0 | 1.7 | 0.00 | 0.48 | 0.48 | 94 | 1010.9 |
| 20260510033501 | 48 | 272 | 0.0 | 0.9 | 0.00 | 0.48 | 0.48 | 94 | 1011.0 |
| 20260510033009 | 48 | 272 | 0.0 | 1.7 | 0.00 | 0.48 | 0.48 | 94 | 1010.9 |
| 20260510032506 | 48 | 265 | 0.0 | 1.7 | 0.00 | 0.48 | 0.48 | 94 | 1010.9 |
| 20260510032006 | 48 | 264 | 0.0 | 1.7 | 0.00 | 0.48 | 0.48 | 94 | 1010.9 |
| 20260510031007 | 48 | 217 | 0.9 | 2.6 | 0.00 | 0.48 | 0.48 | 94 | 1011.0 |
| 20260510030509 | 48 | 250 | 0.9 | 1.7 | 0.00 | 0.48 | 0.48 | 94 | 1010.9 |
| 20260510030018 | 48 | 271 | 0.9 | 1.7 | 0.00 | 0.48 | 0.48 | 94 | 1011.0 |
| 20260510025509 | 48 | 105 | 0.0 | 1.7 | 0.00 | 0.48 | 0.48 | 94 | 1010.9 |
| 20260510024003 | 48 | 257 | 0.9 | 2.6 | 0.00 | 0.48 | 0.48 | 94 | 1011.0 |
| 20260510023005 | 48 | 216 | 0.0 | 1.7 | 0.00 | 0.48 | 0.48 | 94 | 1010.9 |
| 20260510022503 | 48 | 211 | 0.0 | 1.7 | 0.00 | 0.48 | 0.48 | 94 | 1010.9 |
| 20260510022002 | 48 | 211 | 0.0 | 1.7 | 0.00 | 0.48 | 0.48 | 94 | 1011.3 |
| 20260510021515 | 48 | 211 | 0.0 | 1.7 | 0.00 | 0.48 | 0.48 | 94 | 1011.3 |
| 20260510021004 | 48 | 224 | 0.0 | 1.7 | 0.00 | 0.48 | 0.48 | 94 | 1011.4 |
| 20260510020503 | 48 | 252 | 0.0 | 1.7 | 0.00 | 0.48 | 0.48 | 94 | 1011.4 |
| 20260510020014 | 48 | 252 | 0.0 | 1.7 | 0.00 | 0.48 | 0.48 | 94 | 1011.5 |
| 20260510015508 | 48 | 293 | 0.0 | 1.7 | 0.00 | 0.48 | 0.48 | 93 | 1011.4 |
| 20260510015008 | 48 | 360 | 0.0 | 1.7 | 0.00 | 0.48 | 0.48 | 94 | 1011.3 |
| 20260510014520 | 48 | 1 | 0.0 | 1.7 | 0.00 | 0.48 | 0.48 | 93 | 1011.2 |
| 20260510012503 | 48 | 1 | 0.0 | 0.0 | 0.00 | 0.48 | 0.48 | 93 | 1011.4 |
| 20260510012002 | 48 | 1 | 0.0 | 0.0 | 0.00 | 0.48 | 0.48 | 93 | 1011.4 |
| 20260510011006 | 48 | 1 | 0.0 | 1.7 | 0.00 | 0.48 | 0.48 | 93 | 1011.2 |
| 20260510010015 | 48 | 1 | 0.0 | 0.9 | 0.00 | 0.48 | 0.48 | 93 | 1011.2 |
| 20260510005509 | 48 | 1 | 0.0 | 0.9 | 0.00 | 0.48 | 0.48 | 93 | 1011.2 |
| 20260510005008 | 48 | 1 | 0.0 | 1.7 | 0.00 | 0.48 | 0.48 | 93 | 1011.1 |
| 20260510004521 | 48 | 1 | 0.0 | 1.7 | 0.00 | 0.48 | 0.48 | 93 | 1011.1 |
| 20260510004012 | 48 | 1 | 0.0 | 0.0 | 0.00 | 0.48 | 0.48 | 93 | 1011.0 |
| 20260510003508 | 48 | 1 | 0.0 | 0.0 | 0.00 | 0.48 | 0.48 | 93 | 1011.0 |
| 20260510002500 | 48 | 1 | 0.0 | 1.7 | 0.00 | 0.48 | 0.48 | 93 | 1010.9 |
| 20260510001507 | 48 | 1 | 0.0 | 1.7 | 0.00 | 0.48 | 0.48 | 92 | 1010.7 |
| 20260510001004 | 48 | 1 | 0.0 | 1.7 | 0.00 | 0.48 | 0.48 | 92 | 1010.7 |
| 20260510000505 | 48 | 337 | 0.0 | 1.7 | 0.00 | 0.48 | 0.48 | 92 | 1010.6 |
| 20260509235506 | 48 | 37 | 0.0 | 0.9 | 0.00 | 0.48 | 0.48 | 92 | 1010.5 |
| 20260509235005 | 48 | 36 | 0.0 | 1.7 | 0.00 | 0.48 | 0.48 | 92 | 1010.4 |
| 20260509234519 | 48 | 36 | 0.0 | 1.7 | 0.00 | 0.48 | 0.48 | 92 | 1010.4 |
| 20260509234011 | 48 | 36 | 0.0 | 1.7 | 0.00 | 0.48 | 0.48 | 92 | 1010.3 |
| 20260509233507 | 48 | 51 | 0.0 | 0.0 | 0.00 | 0.48 | 0.48 | 92 | 1010.3 |
| 20260509233025 | 48 | 51 | 0.0 | 1.7 | 0.00 | 0.48 | 0.48 | 92 | 1010.3 |
| 20260509232508 | 48 | 51 | 0.0 | 1.7 | 0.00 | 0.48 | 0.48 | 92 | 1010.3 |
| 20260509232009 | 48 | 51 | 0.0 | 1.7 | 0.00 | 0.48 | 0.48 | 92 | 1010.4 |
| 20260509231505 | 48 | 51 | 0.0 | 1.7 | 0.00 | 0.48 | 0.48 | 92 | 1010.3 |
| 20260509231004 | 48 | 51 | 0.0 | 1.7 | 0.00 | 0.48 | 0.48 | 92 | 1010.4 |
| 20260509230504 | 48 | 51 | 0.0 | 1.7 | 0.00 | 0.48 | 0.48 | 92 | 1010.5 |
| 20260509225505 | 48 | 52 | 0.0 | 1.7 | 0.00 | 0.48 | 0.48 | 92 | 1010.5 |
| 20260509224512 | 48 | 52 | 0.0 | 1.7 | 0.00 | 0.48 | 0.48 | 92 | 1010.6 |
| 20260509224008 | 48 | 52 | 0.0 | 1.7 | 0.00 | 0.48 | 0.48 | 92 | 1010.6 |
| 20260509223507 | 48 | 52 | 0.0 | 0.9 | 0.00 | 0.48 | 0.48 | 92 | 1010.6 |
| 20260509223021 | 48 | 52 | 0.0 | 1.7 | 0.00 | 0.48 | 0.48 | 92 | 1010.6 |
| 20260509222508 | 48 | 52 | 0.0 | 1.7 | 0.00 | 0.48 | 0.48 | 91 | 1010.7 |
| 20260509222011 | 48 | 52 | 0.0 | 1.7 | 0.00 | 0.48 | 0.48 | 91 | 1010.7 |
| 20260509221533 | 48 | 52 | 0.0 | 1.7 | 0.00 | 0.48 | 0.48 | 92 | 1010.7 |
| 20260509221009 | 48 | 53 | 0.0 | 1.7 | 0.00 | 0.48 | 0.48 | 91 | 1010.6 |
| 20260509220510 | 48 | 53 | 0.0 | 1.7 | 0.00 | 0.48 | 0.48 | 91 | 1010.7 |
| 20260509215504 | 48 | 53 | 0.0 | 1.7 | 0.00 | 0.48 | 0.48 | 91 | 1010.7 |
| 20260509215004 | 48 | 53 | 0.0 | 1.7 | 0.00 | 0.48 | 0.48 | 91 | 1010.8 |
| 20260509214509 | 48 | 64 | 0.0 | 1.7 | 0.00 | 0.48 | 0.48 | 91 | 1010.8 |
| 20260509214008 | 48 | 201 | 0.0 | 1.7 | 0.00 | 0.48 | 0.48 | 91 | 1010.8 |
| 20260509213504 | 48 | 75 | 0.0 | 1.7 | 0.00 | 0.48 | 0.48 | 91 | 1010.9 |
| 20260509213015 | 48 | 287 | 0.0 | 1.7 | 0.00 | 0.48 | 0.48 | 91 | 1010.9 |
| 20260509212508 | 48 | 41 | 0.0 | 1.7 | 0.00 | 0.48 | 0.48 | 91 | 1011.1 |
| 20260509211526 | 48 | 30 | 0.0 | 1.7 | 0.00 | 0.48 | 0.48 | 91 | 1011.0 |
| 20260509211010 | 48 | 30 | 0.0 | 1.7 | 0.00 | 0.48 | 0.48 | 91 | 1011.1 |
| 20260509210507 | 48 | 31 | 0.0 | 1.7 | 0.00 | 0.48 | 0.48 | 91 | 1011.1 |
| 20260509210038 | 48 | 31 | 0.0 | 1.7 | 0.01 | 0.48 | 0.48 | 91 | 1011.1 |
| 20260509205511 | 48 | 123 | 0.0 | 1.7 | 0.01 | 0.48 | 0.48 | 91 | 1011.2 |
| 20260509204509 | 48 | 82 | 0.0 | 1.7 | 0.02 | 0.48 | 0.48 | 91 | 1011.2 |
| 20260509204009 | 48 | 271 | 0.0 | 1.7 | 0.03 | 0.48 | 0.48 | 91 | 1011.2 |
| 20260509203506 | 48 | 133 | 0.0 | 1.7 | 0.03 | 0.48 | 0.48 | 91 | 1011.3 |
| 20260509202505 | 48 | 79 | 0.0 | 1.7 | 0.05 | 0.48 | 0.48 | 91 | 1011.3 |
| 20260509201524 | 47 | 80 | 0.0 | 1.7 | 0.06 | 0.48 | 0.48 | 90 | 1011.3 |
| 20260509200506 | 48 | 84 | 0.0 | 1.7 | 0.07 | 0.48 | 0.48 | 91 | 1011.3 |
| 20260509200031 | 48 | 360 | 0.0 | 2.6 | 0.07 | 0.47 | 0.47 | 91 | 1011.3 |
| 20260509195508 | 47 | 235 | 0.0 | 2.6 | 0.07 | 0.47 | 0.47 | 90 | 1011.3 |
| 20260509195007 | 47 | 129 | 0.0 | 1.7 | 0.06 | 0.46 | 0.46 | 90 | 1011.3 |
| 20260509194530 | 48 | 109 | 0.0 | 1.7 | 0.07 | 0.46 | 0.46 | 90 | 1011.4 |
| 20260509194016 | 47 | 273 | 0.0 | 1.7 | 0.06 | 0.45 | 0.45 | 90 | 1011.5 |
| 20260509193504 | 48 | 243 | 0.0 | 1.7 | 0.07 | 0.45 | 0.45 | 90 | 1011.5 |
| 20260509193010 | 47 | 305 | 0.9 | 2.6 | 0.06 | 0.44 | 0.44 | 90 | 1011.6 |
| 20260509192508 | 47 | 179 | 0.9 | 2.6 | 0.06 | 0.43 | 0.43 | 90 | 1011.6 |
| 20260509192008 | 47 | 316 | 0.0 | 1.7 | 0.06 | 0.42 | 0.42 | 91 | 1011.6 |
| 20260509191516 | 47 | 250 | 0.9 | 1.7 | 0.07 | 0.42 | 0.42 | 90 | 1011.7 |
| 20260509191007 | 47 | 270 | 0.0 | 2.6 | 0.07 | 0.41 | 0.41 | 90 | 1011.6 |
| 20260509190506 | 47 | 185 | 0.0 | 2.6 | 0.08 | 0.41 | 0.41 | 90 | 1011.7 |
| 20260509185508 | 47 | 262 | 0.0 | 1.7 | 0.09 | 0.40 | 0.40 | 91 | 1011.8 |
| 20260509184535 | 47 | 30 | 0.9 | 1.7 | 0.11 | 0.39 | 0.39 | 91 | 1011.9 |
| 20260509184007 | 47 | 327 | 0.0 | 1.7 | 0.13 | 0.39 | 0.39 | 91 | 1012.0 |
| 20260509183508 | 47 | 249 | 0.0 | 1.7 | 0.13 | 0.38 | 0.38 | 91 | 1012.0 |
| 20260509183028 | 47 | 252 | 0.9 | 1.7 | 0.14 | 0.38 | 0.38 | 90 | 1012.0 |
| 20260509182512 | 47 | 279 | 0.9 | 1.7 | 0.14 | 0.37 | 0.37 | 91 | 1012.0 |
| 20260509182006 | 47 | 170 | 0.0 | 1.7 | 0.14 | 0.36 | 0.36 | 91 | 1012.1 |
| 20260509181514 | 47 | 191 | 0.0 | 1.7 | 0.14 | 0.35 | 0.35 | 91 | 1012.0 |
| 20260509181008 | 47 | 210 | 0.9 | 1.7 | 0.14 | 0.34 | 0.34 | 91 | 1012.0 |
| 20260509180503 | 47 | 143 | 0.9 | 2.6 | 0.14 | 0.33 | 0.33 | 92 | 1012.0 |
| 20260509180003 | 47 | 164 | 0.9 | 2.6 | 0.14 | 0.32 | 0.32 | 91 | 1012.1 |
| 20260509175503 | 47 | 241 | 0.0 | 1.7 | 0.13 | 0.31 | 0.31 | 91 | 1012.3 |
| 20260509175004 | 46 | 256 | 0.0 | 1.7 | 0.13 | 0.30 | 0.30 | 91 | 1012.4 |
| 20260509174508 | 46 | 181 | 0.0 | 1.7 | 0.12 | 0.28 | 0.28 | 91 | 1012.5 |
| 20260509174005 | 46 | 124 | 0.0 | 1.7 | 0.11 | 0.26 | 0.26 | 90 | 1012.4 |
| 20260509173030 | 46 | 122 | 0.0 | 1.7 | 0.09 | 0.24 | 0.24 | 90 | 1012.5 |
| 20260509172503 | 46 | 137 | 0.0 | 1.7 | 0.09 | 0.23 | 0.23 | 90 | 1012.5 |
| 20260509172006 | 46 | 108 | 0.0 | 1.7 | 0.09 | 0.22 | 0.22 | 90 | 1012.6 |
| 20260509171004 | 46 | 139 | 0.0 | 1.7 | 0.08 | 0.20 | 0.20 | 90 | 1012.5 |
| 20260509170507 | 46 | 98 | 0.0 | 1.7 | 0.07 | 0.19 | 0.19 | 90 | 1012.7 |
| 20260509170018 | 46 | 226 | 0.0 | 1.7 | 0.07 | 0.18 | 0.18 | 90 | 1012.8 |
| 20260509165500 | 46 | 7 | 0.0 | 1.7 | 0.07 | 0.18 | 0.18 | 90 | 1012.7 |
| 20260509165001 | 46 | 103 | 0.0 | 1.7 | 0.06 | 0.17 | 0.17 | 90 | 1012.8 |
| 20260509164503 | 46 | 201 | 0.0 | 1.7 | 0.06 | 0.16 | 0.16 | 90 | 1012.9 |
| 20260509164003 | 45 | 168 | 0.0 | 1.7 | 0.05 | 0.15 | 0.15 | 90 | 1012.9 |
| 20260509163504 | 45 | 219 | 0.0 | 2.6 | 0.06 | 0.15 | 0.15 | 90 | 1013.0 |
| 20260509163013 | 45 | 225 | 0.0 | 2.6 | 0.07 | 0.15 | 0.15 | 90 | 1013.1 |
| 20260509162504 | 45 | 171 | 0.0 | 1.7 | 0.06 | 0.14 | 0.14 | 90 | 1013.2 |
| 20260509162004 | 45 | 274 | 0.0 | 1.7 | 0.06 | 0.13 | 0.13 | 89 | 1013.2 |
| 20260509161512 | 45 | 269 | 0.0 | 1.7 | 0.07 | 0.13 | 0.13 | 89 | 1013.3 |
| 20260509161005 | 45 | 251 | 0.0 | 1.7 | 0.07 | 0.12 | 0.12 | 89 | 1013.4 |
| 20260509160504 | 45 | 285 | 0.0 | 1.7 | 0.07 | 0.12 | 0.12 | 89 | 1013.4 |
| 20260509155504 | 45 | 113 | 0.9 | 2.6 | 0.07 | 0.11 | 0.11 | 89 | 1013.5 |
| 20260509155008 | 45 | 193 | 0.0 | 2.6 | 0.07 | 0.11 | 0.11 | 89 | 1013.6 |
| 20260509154002 | 45 | 193 | 0.0 | 1.7 | 0.08 | 0.10 | 0.10 | 89 | 1013.8 |
| 20260509153503 | 45 | 156 | 0.0 | 1.7 | 0.07 | 0.09 | 0.09 | 89 | 1013.8 |
| 20260509153006 | 45 | 316 | 0.0 | 1.7 | 0.07 | 0.08 | 0.08 | 88 | 1013.9 |
| 20260509152503 | 45 | 359 | 0.0 | 1.7 | 0.07 | 0.08 | 0.08 | 89 | 1013.9 |
| 20260509152004 | 45 | 348 | 0.0 | 1.7 | 0.07 | 0.07 | 0.07 | 88 | 1013.9 |
| 20260509151508 | 45 | 292 | 0.9 | 1.7 | 0.06 | 0.06 | 0.06 | 88 | 1013.9 |
| 20260509151006 | 45 | 60 | 0.0 | 1.7 | 0.05 | 0.05 | 0.05 | 88 | 1013.8 |
| 20260509150504 | 45 | 129 | 0.0 | 1.7 | 0.05 | 0.05 | 0.05 | 88 | 1013.9 |